DW7854 Weather Reports


Display with metric or nautical units.
time (UTC)temp
F
wind
direction
speed
MPH
gust
MPH
rain 1hr
in
rain 24hr
in
rain mn
in
humidity
%
barometer
mb
20260905214505 101 192 4.0 9.0 0.00 0.00 0.00 42 1008.6
20260905213112 101 140 5.0 9.0 0.00 0.00 0.00 41 1008.6
20260905212906 102 182 4.0 9.0 0.00 0.00 0.00 41 1009.0
20260905211611 101 169 1.0 8.0 0.00 0.00 0.00 42 1008.7
20260905210206 102 139 2.0 4.0 0.00 0.00 0.00 42 1009.2
20260905210002 102 163 0.0 5.0 0.00 0.00 0.00 42 1008.9
20260905204504 103 155 7.0 10.0 0.00 0.00 0.00 41 1009.1
20260905204406 103 169 6.0 10.0 0.00 0.00 0.00 41 1009.5
20260905203506 103 170 6.0 11.0 0.00 0.00 0.00 41 1009.7
20260905203004 103 148 7.0 11.0 0.00 0.00 0.00 41 1009.3
20260905202606 104 162 6.0 10.0 0.00 0.00 0.00 41 1009.7
20260905201706 103 171 5.0 9.0 0.00 0.00 0.00 43 1009.8
20260905201610 103 157 5.0 9.0 0.00 0.00 0.00 42 1009.4
20260905200806 103 191 5.0 10.0 0.00 0.00 0.00 43 1010.0
20260905200120 103 180 4.0 9.0 0.00 0.00 0.00 42 1009.8
20260905195906 103 168 3.0 10.0 0.00 0.00 0.00 42 1010.1
20260905195006 102 174 4.0 10.0 0.00 0.00 0.00 42 1010.3
20260905194612 102 143 2.0 9.0 0.00 0.00 0.00 43 1010.0
20260905194106 102 171 6.0 10.0 0.00 0.00 0.00 42 1010.4
20260905193206 102 158 5.0 11.0 0.00 0.00 0.00 44 1010.6
20260905193104 101 130 6.0 11.0 0.00 0.00 0.00 44 1010.2
20260905191506 101 169 5.0 9.0 0.00 0.00 0.00 44 1010.5
20260905191406 101 176 4.0 10.0 0.00 0.00 0.00 44 1010.9
20260905190506 101 157 3.0 10.0 0.00 0.00 0.00 44 1011.1
20260905190107 99 175 4.0 8.0 0.00 0.00 0.00 45 1010.9
20260905185606 99 74 2.0 6.0 0.00 0.00 0.00 46 1011.3
20260905184706 99 89 3.0 7.0 0.00 0.00 0.00 47 1011.6
20260905184507 98 97 4.0 7.0 0.00 0.00 0.00 46 1011.2
20260905183106 99 113 5.0 10.0 0.00 0.00 0.00 46 1011.4
20260905182005 99 160 3.0 10.0 0.00 0.00 0.00 47 1011.9
20260905181504 99 100 3.0 11.0 0.00 0.00 0.00 47 1011.6
20260905181106 100 160 5.0 10.0 0.00 0.00 0.00 47 1012.1
20260905180005 99 157 6.0 10.0 0.00 0.00 0.00 47 1011.8
20260905175306 99 187 4.0 10.0 0.00 0.00 0.00 48 1012.3
20260905174607 98 140 1.0 7.0 0.00 0.00 0.00 50 1012.0
20260905174406 99 178 3.0 7.0 0.00 0.00 0.00 48 1012.4
20260905173505 99 181 3.0 8.0 0.00 0.00 0.00 48 1012.4
20260905173106 98 179 3.0 8.0 0.00 0.00 0.00 49 1012.1
20260905172606 98 154 4.0 8.0 0.00 0.00 0.00 51 1012.5
20260905171706 98 172 5.0 8.0 0.00 0.00 0.00 50 1012.6
20260905171603 97 159 5.0 8.0 0.00 0.00 0.00 53 1012.2
20260905170805 96 135 2.0 8.0 0.00 0.00 0.00 54 1012.7
20260905170004 95 170 2.0 6.0 0.00 0.00 0.00 55 1012.5
20260905165905 96 182 3.0 7.0 0.00 0.00 0.00 55 1012.9
20260905165006 97 199 2.0 7.0 0.00 0.00 0.00 54 1013.0
20260905164504 97 276 2.0 7.0 0.00 0.00 0.00 53 1012.6
20260905164105 98 172 4.0 8.0 0.00 0.00 0.00 53 1013.0
20260905163206 97 156 3.0 6.0 0.00 0.00 0.00 55 1013.1
20260905163006 96 126 3.0 6.0 0.00 0.00 0.00 56 1012.8
20260905162306 96 247 2.0 6.0 0.00 0.00 0.00 56 1013.1
20260905161503 95 211 2.0 7.0 0.00 0.00 0.00 57 1012.8
20260905161405 96 215 3.0 7.0 0.00 0.00 0.00 57 1013.1
20260905160505 96 232 2.0 6.0 0.00 0.00 0.00 59 1013.2
20260905160005 95 355 1.0 7.0 0.00 0.00 0.00 58 1012.8
20260905154613 94 88 1.0 5.0 0.00 0.00 0.00 60 1012.8
20260905153806 94 182 3.0 6.0 0.00 0.00 0.00 62 1013.2
20260905153003 92 244 2.0 6.0 0.00 0.00 0.00 63 1012.9
20260905152905 93 242 2.0 6.0 0.00 0.00 0.00 64 1013.2
20260905152006 92 169 1.0 4.0 0.00 0.00 0.00 64 1013.1
20260905151515 91 107 1.0 4.0 0.00 0.00 0.00 64 1012.8
20260905150205 91 167 2.0 5.0 0.00 0.00 0.00 65 1013.1
20260905150003 91 120 2.0 5.0 0.00 0.00 0.00 65 1012.7
20260905145307 91 158 3.0 6.0 0.00 0.00 0.00 66 1013.1
20260905144609 89 180 2.0 6.0 0.00 0.00 0.00 68 1012.7
20260905144405 90 153 2.0 6.0 0.00 0.00 0.00 69 1013.1
20260905143505 88 133 2.0 3.0 0.00 0.00 0.00 72 1013.0
20260905143006 87 120 1.0 3.0 0.00 0.00 0.00 72 1012.7
20260905141705 86 122 2.0 3.0 0.00 0.00 0.00 74 1013.1
20260905141522 85 136 2.0 4.0 0.00 0.00 0.00 75 1012.8
20260905140805 85 106 2.0 5.0 0.00 0.00 0.00 75 1013.2
20260905140106 84 111 0.0 3.0 0.00 0.00 0.00 77 1012.7
20260905135905 84 111 2.0 3.0 0.00 0.00 0.00 77 1013.1
20260905135006 83 109 2.0 5.0 0.00 0.00 0.00 80 1013.0
20260905134507 82 111 0.0 4.0 0.00 0.00 0.00 81 1012.7
20260905134105 82 88 1.0 4.0 0.00 0.00 0.00 82 1013.0
20260905133205 80 79 0.0 3.0 0.00 0.00 0.00 85 1013.0
20260905133104 80 61 0.0 3.0 0.00 0.00 0.00 85 1012.6
20260905132306 79 58 1.0 3.0 0.00 0.00 0.00 86 1012.8
20260905131608 78 54 1.0 3.0 0.00 0.00 0.00 87 1012.5
20260905131405 78 37 1.0 3.0 0.00 0.00 0.00 88 1012.8
20260905130505 77 50 1.0 3.0 0.00 0.00 0.00 90 1012.8
20260905130003 76 86 1.0 3.0 0.00 0.00 0.00 90 1012.4
20260905125605 76 51 1.0 3.0 0.00 0.00 0.00 91 1012.9
20260905124507 75 5 0.0 1.0 0.00 0.00 0.00 92 1012.5
20260905123805 76 10 1.0 3.0 0.00 0.00 0.00 92 1013.0
20260905123006 75 5 1.0 3.0 0.00 0.00 0.00 92 1012.7
20260905122905 75 23 0.0 3.0 0.00 0.00 0.00 92 1013.1
20260905122005 75 357 0.0 2.0 0.00 0.00 0.00 92 1013.1
20260905121505 75 344 0.0 1.0 0.00 0.00 0.00 92 1012.7
20260905121105 75 343 0.0 2.0 0.00 0.00 0.00 91 1012.9
20260905120205 75 342 1.0 2.0 0.00 0.00 0.00 91 1012.9
20260905120004 75 344 0.0 2.0 0.00 0.00 0.00 91 1012.6
20260905115306 75 187 0.0 2.0 0.00 0.00 0.00 91 1012.9
20260905114504 75 180 0.0 1.0 0.00 0.00 0.00 91 1012.6
20260905114405 75 181 0.0 1.0 0.00 0.00 0.00 91 1012.9
20260905113505 75 0 0.0 0.0 0.00 0.00 0.00 90 1012.8
20260905113103 75 152 0.0 0.0 0.00 0.00 0.00 90 1012.5
20260905112605 75 0 0.0 0.0 0.00 0.00 0.00 90 1012.8
20260905111705 75 0 0.0 0.0 0.00 0.00 0.00 90 1012.8
20260905111607 75 152 0.0 0.0 0.00 0.00 0.00 90 1012.5
20260905110805 75 0 0.0 0.0 0.00 0.00 0.00 90 1012.8
20260905110003 75 152 0.0 2.0 0.00 0.00 0.00 89 1012.5
20260905105905 75 152 0.0 1.0 0.00 0.00 0.00 89 1012.8
20260905105005 76 152 0.0 1.0 0.00 0.00 0.00 89 1012.7
20260905104602 75 152 0.0 2.0 0.00 0.00 0.00 89 1012.4
20260905104105 76 152 0.0 1.0 0.00 0.00 0.00 89 1012.7
20260905103205 76 152 0.0 1.0 0.00 0.00 0.00 88 1012.5
20260905103003 75 152 0.0 1.0 0.00 0.00 0.00 88 1012.2
20260905102306 76 152 0.0 1.0 0.00 0.00 0.00 88 1012.5
20260905101611 75 152 0.0 1.0 0.00 0.00 0.00 88 1012.3
20260905101405 76 152 0.0 1.0 0.00 0.00 0.00 88 1012.6
20260905100505 76 152 0.0 1.0 0.00 0.00 0.00 88 1012.6
20260905100004 76 152 0.0 1.0 0.00 0.00 0.00 88 1012.1
20260905095605 76 152 0.0 1.0 0.00 0.00 0.00 87 1012.4
20260905094705 76 0 0.0 0.0 0.00 0.00 0.00 87 1012.3
20260905094508 76 152 0.0 0.0 0.00 0.00 0.00 87 1012.1
20260905093805 76 152 1.0 2.0 0.00 0.00 0.00 87 1012.3
20260905093002 76 152 1.0 2.0 0.00 0.00 0.00 87 1012.0
20260905092905 77 152 1.0 2.0 0.00 0.00 0.00 87 1012.2
20260905092005 77 151 0.0 1.0 0.00 0.00 0.00 86 1012.3
20260905091504 77 152 0.0 1.0 0.00 0.00 0.00 86 1011.9
20260905091105 77 151 0.0 1.0 0.00 0.00 0.00 85 1012.2
20260905090205 77 152 0.0 1.0 0.00 0.00 0.00 85 1012.3
20260905090003 77 152 0.0 1.0 0.00 0.00 0.00 85 1011.9
20260905085306 78 152 1.0 2.0 0.00 0.00 0.00 85 1012.2
20260905084602 77 152 1.0 2.0 0.00 0.00 0.00 85 1011.8
20260905084405 78 152 1.0 2.0 0.00 0.00 0.00 84 1012.1
20260905083505 78 152 1.0 2.0 0.00 0.00 0.00 84 1012.0
20260905083005 78 152 1.0 2.0 0.00 0.00 0.00 84 1011.7
20260905082605 78 152 1.0 2.0 0.00 0.00 0.00 84 1011.9
20260905081705 79 152 0.0 1.0 0.00 0.00 0.00 83 1012.0
20260905081505 78 152 0.0 0.0 0.00 0.00 0.00 83 1011.7
20260905080805 79 151 0.0 1.0 0.00 0.00 0.00 82 1012.0
20260905080011 79 152 0.0 1.0 0.00 0.00 0.00 82 1011.7
20260905074508 79 152 0.0 1.0 0.00 0.00 0.00 80 1011.8
20260905073205 80 152 0.0 1.0 0.00 0.00 0.00 80 1012.2
20260905073102 80 152 0.0 1.0 0.00 0.00 0.00 79 1011.9
20260905072306 81 152 0.0 1.0 0.00 0.00 0.00 79 1012.2
20260905071605 80 152 0.0 2.0 0.00 0.00 0.00 78 1011.8
20260905071405 81 152 1.0 2.0 0.00 0.00 0.00 78 1012.2
20260905070505 81 0 0.0 0.0 0.00 0.00 0.00 78 1012.3
20260905070119 81 152 0.0 1.0 0.00 0.00 0.00 78 1011.9
20260905065605 81 152 0.0 1.0 0.00 0.00 0.00 77 1012.3
20260905064707 81 151 0.0 2.0 0.00 0.00 0.00 77 1012.2
20260905064603 81 152 0.0 2.0 0.00 0.00 0.00 77 1012.0
20260905063805 82 152 1.0 2.0 0.00 0.00 0.00 77 1012.2
20260905063111 81 152 0.0 2.0 0.00 0.00 0.00 76 1011.8
20260905062005 82 151 0.0 1.0 0.00 0.00 0.00 76 1012.2
20260905061506 82 152 0.0 1.0 0.00 0.00 0.00 76 1011.9
20260905061105 82 151 0.0 2.0 0.00 0.00 0.00 76 1012.2
20260905060006 82 152 0.0 2.0 0.00 0.00 0.00 76 1011.9
20260905054606 82 152 0.0 2.0 0.00 0.00 0.00 76 1012.0
20260905054405 82 151 0.0 2.0 0.00 0.00 0.00 76 1012.3
20260905053005 82 152 0.0 1.0 0.00 0.00 0.00 75 1011.9
20260905052605 83 152 0.0 1.0 0.00 0.00 0.00 75 1012.1
20260905051604 82 152 0.0 1.0 0.00 0.00 0.00 75 1011.7
20260905050805 83 151 0.0 1.0 0.00 0.00 0.00 75 1012.1
20260905050004 82 152 0.0 1.0 0.00 0.00 0.00 75 1011.9
20260905045905 83 152 0.0 2.0 0.00 0.00 0.00 75 1012.1
20260905045005 83 151 0.0 2.0 0.00 0.00 0.00 75 1012.2
20260905044622 82 152 0.0 3.0 0.00 0.00 0.00 75 1011.9
20260905044105 83 151 1.0 2.0 0.00 0.00 0.00 75 1012.2
20260905043205 83 0 0.0 0.0 0.00 0.00 0.00 76 1012.1
20260905043002 82 152 0.0 0.0 0.00 0.00 0.00 76 1011.9
20260905042307 83 0 0.0 0.0 0.00 0.00 0.00 76 1012.2
20260905041507 82 152 0.0 0.0 0.00 0.00 0.00 76 1011.9
20260905041405 83 0 0.0 0.0 0.00 0.00 0.00 76 1012.2
20260905040505 83 0 0.0 0.0 0.00 0.00 0.00 75 1012.3
20260905040008 82 152 0.0 0.0 0.00 0.00 0.00 75 1012.0
20260905035605 83 0 0.0 0.0 0.00 0.00 0.00 75 1012.3
20260905034705 83 0 0.0 0.0 0.00 0.00 0.00 75 1012.2
20260905034505 83 152 0.0 0.0 0.00 0.00 0.00 75 1011.9
20260905033106 83 152 0.0 0.0 0.00 0.00 0.00 74 1011.8
20260905032905 84 0 0.0 0.0 0.00 0.00 0.00 74 1012.1
20260905032005 84 0 0.0 0.0 0.00 0.00 0.00 73 1012.1
20260905031608 84 152 0.0 0.0 0.00 0.00 0.00 73 1011.9
20260905031105 85 0 0.0 0.0 0.00 0.00 0.00 72 1012.1
20260905030205 85 0 0.0 0.0 0.00 0.00 0.00 71 1012.0
20260905030106 85 152 0.0 0.0 0.00 0.00 0.00 71 1011.7
20260905025306 86 0 0.0 0.0 0.00 0.00 0.00 71 1011.8
20260905024508 85 152 0.0 0.0 0.00 0.00 0.00 70 1011.5
20260905024405 86 0 0.0 0.0 0.00 0.00 0.00 70 1011.8
20260905023505 86 152 0.0 1.0 0.00 0.00 0.00 70 1011.8
20260905023010 86 152 0.0 1.0 0.00 0.00 0.00 69 1011.3
20260905022605 87 0 0.0 0.0 0.00 0.00 0.00 68 1011.6
20260905021705 87 152 0.0 1.0 0.00 0.00 0.00 68 1011.5
20260905021508 87 152 0.0 2.0 0.00 0.00 0.00 68 1011.2
20260905020805 87 152 1.0 2.0 0.00 0.00 0.00 68 1011.4
20260905020006 87 152 0.0 2.0 0.00 0.00 0.00 67 1011.0
20260905015905 88 152 0.0 2.0 0.00 0.00 0.00 67 1011.3
20260905015005 88 151 0.0 2.0 0.00 0.00 0.00 66 1011.3
20260905014509 88 152 0.0 2.0 0.00 0.00 0.00 66 1010.9
20260905014105 88 164 2.0 3.0 0.00 0.00 0.00 65 1011.2
20260905013205 89 167 3.0 7.0 0.00 0.00 0.00 65 1011.2
20260905013102 89 175 2.0 7.0 0.00 0.00 0.00 65 1010.9
20260905012306 90 156 2.0 7.0 0.00 0.00 0.00 63 1011.2
20260905011504 90 138 2.0 6.0 0.00 0.00 0.00 62 1010.7
20260905011405 90 155 3.0 6.0 0.00 0.00 0.00 62 1011.0
20260905010505 91 147 4.0 7.0 0.00 0.00 0.00 60 1011.0
20260905010003 91 161 4.0 7.0 0.00 0.00 0.00 57 1010.8
20260905005605 93 140 0.0 4.0 0.00 0.00 0.00 55 1010.9
20260905004637 93 141 0.0 0.0 0.00 0.00 0.00 54 1010.5
20260905003805 94 140 0.0 1.0 0.00 0.00 0.00 53 1010.8
20260905003005 94 141 0.0 2.0 0.00 0.00 0.00 53 1010.5
20260905002905 94 140 1.0 1.0 0.00 0.00 0.00 52 1010.8
20260905002005 95 126 0.0 2.0 0.00 0.00 0.00 51 1010.7
20260905001502 94 360 0.0 2.0 0.00 0.00 0.00 51 1010.4
20260905001105 95 123 1.0 2.0 0.00 0.00 0.00 50 1010.8
20260905000205 95 141 1.0 3.0 0.00 0.00 0.00 50 1010.7
20260905000003 95 68 0.0 3.0 0.00 0.00 0.00 50 1010.4
20260904235306 95 150 2.0 3.0 0.00 0.00 0.00 48 1010.5
20260904234602 95 150 2.0 4.0 0.00 0.00 0.00 49 1010.2
20260904233505 96 166 2.0 4.0 0.00 0.00 0.00 48 1010.6
20260904233103 96 186 1.0 4.0 0.00 0.00 0.00 47 1010.2
20260904232605 97 169 2.0 4.0 0.00 0.00 0.00 46 1010.6
20260904231705 98 170 2.0 5.0 0.00 0.00 0.00 46 1010.6
20260904231608 97 175 1.0 5.0 0.00 0.00 0.00 46 1010.2
20260904230805 99 177 2.0 4.0 0.00 0.00 0.00 46 1010.5
20260904230128 98 186 1.0 4.0 0.00 0.00 0.00 46 1010.1
20260904225905 99 165 2.0 4.0 0.00 0.00 0.00 45 1010.5
20260904225005 99 189 3.0 5.0 0.00 0.00 0.00 45 1010.5
20260904224503 98 182 2.0 6.0 0.00 0.00 0.00 45 1010.2
20260904224105 99 179 4.0 7.0 0.00 0.00 0.00 45 1010.7
20260904223003 99 138 2.0 7.0 0.00 0.00 0.00 45 1010.4
20260904222306 99 166 3.0 6.0 0.00 0.00 0.00 45 1010.7
20260904221504 99 214 3.0 8.0 0.00 0.00 0.00 45 1010.4
20260904220110 99 178 5.0 7.0 0.00 0.00 0.00 44 1010.4
20260904215605 99 146 3.0 5.0 0.00 0.00 0.00 44 1010.8
20260904214705 100 168 3.0 6.0 0.00 0.00 0.00 41 1010.8